[[{"header":{"parameterUnit":"m.s-1","parameterCategory":1,"la1":30.2991,"la2":30.254,"lo1":-89.0895,"lo2":-89.0444,"dy":0.0017,"dx":0.0017,"nx":28,"ny":28,"refTime":"2026-02-10T09:00:00:Z","depth":0,"parameterNumber":2,"parameterNumberName":"U-component_of_WINDS"},"data":[0,0,0,0,0,0,0,0,0,0,0,0,0,0,0,0,0,0,0,0,0,0,0,0,0,0,0,0,0,0,0,0,0,0,0,0,0,0,0,0,0,0,0,0,0,0,0,0,0,0,0,0,0,0,0,0,0,0,0.9003,0.9004,0,0.91,0.9101,0.9102,0.9103,0.9101,0.91,0.9099,0.9202,0.9206,0.9209,0,0,0,0,0,0,0,0,0,0,0,0,0,0.882,0.8823,0.9003,0.9004,0.9005,0.91,0.9101,0.9102,0.9103,0.9101,0.91,0.9098,0.92,0.9205,0.921,0,0,0,0,0,0,0,0,0,0,0,0,0,0.8907,0.8824,0.9003,0.9017,0.9019,0.9099,0.9101,0.9103,0.9103,0.9101,0.9099,0.9098,0.9199,0.9205,0.921,0.9284,0,0,0.9228,0.9231,0,0,0,0,0,0,0,0,0.8902,0.8913,0.9013,0.9016,0.9018,0.9087,0.9074,0.9164,0.9104,0.9071,0.9099,0.9097,0.9165,0.9174,0.9196,0.9289,0.9294,0.9229,0.9232,0.9235,0.9237,0,0,0,0,0,0,0,0.8896,0.8909,0.9041,0.9015,0.9018,0.9019,0.9029,0.9091,0.9128,0.9074,0.9074,0.9086,0.9166,0.9191,0.9199,0.9295,0.9229,0.9234,0.9238,0.924,0.9453,0.9455,0,0,0,0,0,0,0.8886,0.8904,0.9038,0.9044,0.8954,0.9024,0.9035,0.9067,0.9127,0.9134,0.9087,0.9085,0.9182,0.9192,0.9202,0.9292,0.9235,0.924,0.9244,0.9451,0.9453,0.9456,0,0,0,0,0,0,0.8882,0.8898,0.9034,0.8974,0.8992,0.9029,0.9065,0.907,0.9094,0.9137,0.9144,0.9105,0.9181,0.9194,0.9264,0.9296,0.9243,0.9248,0.9448,0.9452,0.9454,0.9473,0,0,0,0,0,0,0.8877,0.8897,0.8925,0.8975,0.8995,0.9093,0.9067,0.9073,0.9104,0.9102,0.9156,0.9163,0.918,0.9255,0.9269,0.9303,0.9253,0.9445,0.945,0.9453,0.947,0.9477,0.9482,0,0,0,0,0,0.8871,0.8927,0.8926,0.8942,0.903,0.9095,0.9107,0.9124,0.9106,0.9135,0.9163,0.9161,0.929,0.9262,0.9278,0.9314,0.9444,0.9448,0.9453,0.9467,0.9475,0.9482,0,0,0,0,0,0,0.8881,0.8934,0.8934,0.9008,0.9047,0.9095,0.9132,0.9133,0.9179,0.9175,0.9197,0.9209,0.9278,0.9303,0.9271,0.9389,0.9365,0.9373,0.937,0.9378,0.9384,0.9377,0.9258,0,0,0,0,0,0.8892,0.8939,0.8983,0.9044,0.9064,0.9094,0.9123,0.9133,0.9175,0.9192,0.9225,0.9266,0.9316,0.9348,0.9397,0.9473,0.9485,0.9506,0.9513,0.9517,0.9525,0.9567,0.9576,0.9471,0.9471,0.9471,0,0,0.8915,0.895,0.8979,0.9047,0.9079,0.9128,0.9108,0.9161,0.9198,0.9201,0.9267,0.9293,0.934,0.9414,0.9448,0.9437,0.9556,0.9524,0.9527,0.9532,0.9573,0.9582,0.9591,0.9475,0.9474,0.9474,0,0,0.8982,0.9013,0.9067,0.9099,0.9146,0.9166,0.9179,0.9227,0.9243,0.931,0.9313,0.9358,0.9443,0.9477,0.9505,0.9584,0.9584,0.9599,0.9632,0.9673,0.9681,0.9689,0.9716,0.9726,0.9606,0.9606,0.9606,0,0.9005,0.9078,0.9095,0.9148,0.9178,0.9181,0.9236,0.9266,0.9328,0.9349,0.9335,0.9442,0.9474,0.9555,0.9574,0.9597,0.9613,0.9593,0.9678,0.9686,0.9693,0.972,0.973,0.9607,0.9607,0.9607,0.9607,0,0.9104,0.9155,0.9193,0.925,0.9285,0.9339,0.9364,0.9397,0.9404,0.9426,0.9494,0.9533,0.9589,0.9609,0.9617,0.9691,0.9682,0.9674,0.965,0.9704,0.973,0.974,0.961,0.9609,0.9609,0.9608,0,0,0.9181,0.9246,0.926,0.9286,0.9338,0.9378,0.9432,0.9485,0.9513,0.9555,0.9601,0.9672,0.9664,0.9696,0.9708,0.9744,0.9803,0.9731,0.9732,0.9743,0.9887,0.9893,0.9904,0.9804,0.9806,0.9807,0.9883,0,0.9253,0.9348,0.9364,0.9447,0.9494,0.9498,0.9545,0.9582,0.9603,0.9647,0.9671,0.9721,0.9707,0.9726,0.9761,0.9788,0.9833,0.9783,0.9847,0.9849,0.9834,0.9918,0.9924,0.9994,0.9893,0.9894,0.9896,0,0.9351,0.9393,0.9481,0.9526,0.9546,0.9588,0.9638,0.9679,0.9722,0.9735,0.977,0.9777,0.9834,0.9807,0.9886,0.9852,0.9879,0.9896,0.9899,0.9906,0.9875,0.9926,1.0016,1.0026,0.9912,0.991,0.9909,0,0.9397,0.9477,0.9539,0.9562,0.9616,0.9645,0.9669,0.971,0.974,0.9784,0.9804,0.9855,0.9882,0.9922,0.9943,0.9922,1.002,0.9995,1.0032,1.0032,1.0053,1.0051,1.0148,1.0071,1.007,1.007,1.007,0,0.9476,0.9529,0.9561,0.9599,0.9659,0.9678,0.9736,0.976,0.9796,0.9839,0.9846,0.9887,0.9912,0.9957,0.9974,1.0036,1.0049,1.0061,1.0065,1.006,1.0059,1.0078,1.0074,1.0073,1.0072,1.0072,1.0071,0,0.9538,0.9562,0.963,0.9675,0.9688,0.973,0.9769,0.9806,0.9827,0.9882,0.9896,0.9929,0.9982,1.0007,1.0073,1.0084,1.0154,1.0155,1.014,1.0141,1.0177,1.0173,1.0289,1.0305,1.0218,1.0218,1.0219,0,0.9587,0.9628,0.9677,0.9706,0.973,0.9777,0.9808,0.9828,0.986,0.9911,0.9943,0.9995,1.0039,1.0123,1.0153,1.0204,1.0206,1.0243,1.0213,1.0207,1.0206,1.0203,1.0207,1.0248,1.0249,1.025,1.025,0,0.967,0.968,0.9724,0.9772,0.9808,0.9847,0.9885,0.9909,0.9935,0.9971,1.0024,1.0058,1.0124,1.0176,1.0228,1.0254,1.0257,1.0259,1.0271,1.0266,1.0255,1.0261,1.0154,1.0257,1.0256,1.0256,1.0255,1.0255,0.9727,0.9763,0.9803,0.9852,0.9882,0.9918,0.9955,0.998,1.0024,1.0079,1.0089,1.0145,1.0187,1.0257,1.0284,1.0329,1.032,1.0337,1.0341,1.0344,1.0346,1.0248,1.0339,1.0339,1.0339,1.0338,1.0338,0,0.981,0.9836,0.988,0.9933,0.9971,0.9969,1.0012,1.0044,1.0093,1.0131,1.0173,1.0234,1.0285,1.0319,1.037,1.04,1.0402,1.0412,1.041,1.0416,1.0351,1.0336,1.0409,1.0409,1.0409,1.0409,1.0409,1.0409,0.9858,0.9919,0.9933,1.0009,1.0034,1.0089,1.0113,1.0146,1.0176,1.0243,1.0285,1.0306,1.0343,1.0397,1.0443,1.0452,1.047,1.0481,1.0489,1.0428,1.0421,1.0414,1.0399,1.0485,1.0485,1.055,1.0551,1.0551]},{"header":{"parameterUnit":"m.s-1","parameterCategory":1,"la1":30.2991,"la2":30.254,"lo1":-89.0895,"lo2":-89.0444,"dy":0.0017,"dx":0.0017,"nx":28,"ny":28,"refTime":"2026-02-10T09:00:00:Z","depth":0,"parameterNumber":3,"parameterNumberName":"V-component_of_WINDS"},"data":[0,0,0,0,0,0,0,0,0,0,0,0,0,0,0,0,0,0,0,0,0,0,0,0,0,0,0,0,0,0,0,0,0,0,0,0,0,0,0,0,0,0,0,0,0,0,0,0,0,0,0,0,0,0,0,0,0,0,2.3584,2.3584,0,2.3545,2.3544,2.3544,2.3517,2.3517,2.3517,2.3517,2.3474,2.3473,2.3472,0,0,0,0,0,0,0,0,0,0,0,0,0,2.3635,2.3634,2.3585,2.3584,2.3584,2.3545,2.3544,2.3543,2.3517,2.3517,2.3517,2.3517,2.3474,2.3473,2.3472,0,0,0,0,0,0,0,0,0,0,0,0,0,2.3606,2.3634,2.3585,2.3566,2.3564,2.3545,2.3544,2.3543,2.3517,2.3517,2.3517,2.3517,2.3475,2.3473,2.3472,2.3468,0,0,2.3467,2.3467,0,0,0,0,0,0,0,0,2.3607,2.3604,2.3569,2.3567,2.3565,2.3536,2.3546,2.3518,2.3517,2.3535,2.3517,2.3516,2.3495,2.3491,2.3484,2.3466,2.3464,2.3467,2.3466,2.3466,2.3465,0,0,0,0,0,0,0,2.3609,2.3605,2.3569,2.3569,2.3566,2.3558,2.3554,2.3541,2.3517,2.3533,2.3531,2.3527,2.3493,2.3486,2.3483,2.3463,2.3467,2.3466,2.3465,2.3465,2.3436,2.3436,0,0,0,0,0,0,2.3615,2.3607,2.357,2.3567,2.3586,2.3557,2.3553,2.3545,2.3517,2.3512,2.3527,2.3526,2.3489,2.3485,2.3482,2.3473,2.3466,2.3464,2.3464,2.3436,2.3436,2.3436,0,0,0,0,0,0,2.3616,2.3612,2.3571,2.3587,2.3581,2.3557,2.3549,2.3545,2.3537,2.3512,2.3507,2.3524,2.3488,2.3484,2.3471,2.3471,2.3464,2.3462,2.3436,2.3436,2.3436,2.3457,0,0,0,0,0,0,2.3617,2.3612,2.3611,2.3587,2.358,2.3563,2.3549,2.3544,2.3535,2.3533,2.3508,2.3504,2.3488,2.3473,2.3469,2.3469,2.3461,2.3435,2.3436,2.3436,2.3456,2.3458,2.346,0,0,0,0,0,2.3619,2.3619,2.3612,2.3607,2.3579,2.3563,2.3559,2.3541,2.3535,2.3533,2.3517,2.3505,2.3472,2.3472,2.3468,2.3467,2.3435,2.3436,2.3436,2.3456,2.3458,2.3459,0,0,0,0,0,0,2.3644,2.3616,2.3607,2.3599,2.3584,2.3558,2.3556,2.3544,2.3529,2.3528,2.3506,2.35,2.3489,2.3477,2.3477,2.346,2.3452,2.3451,2.3468,2.347,2.3472,2.3475,2.346,0,0,0,0,0,2.3649,2.3639,2.3614,2.361,2.3602,2.358,2.3573,2.356,2.3543,2.3536,2.3518,2.3501,2.3487,2.3478,2.3463,2.3454,2.3447,2.3451,2.3453,2.3454,2.3454,2.3445,2.3446,2.3437,2.3437,2.3437,0,0,2.3659,2.3642,2.3637,2.3614,2.3601,2.3589,2.3575,2.3565,2.3555,2.3534,2.352,2.3507,2.3486,2.3474,2.3468,2.3464,2.3455,2.3455,2.3456,2.3455,2.3446,2.3446,2.3447,2.3437,2.3437,2.3437,0,0,2.367,2.3657,2.3651,2.3637,2.3617,2.3602,2.36,2.3576,2.3566,2.3552,2.3535,2.3523,2.35,2.3485,2.3474,2.3477,2.3464,2.3473,2.3481,2.3473,2.3474,2.3474,2.3473,2.3474,2.3472,2.3473,2.3473,0,2.3684,2.3668,2.3649,2.3639,2.3628,2.3608,2.36,2.3588,2.3563,2.3556,2.3551,2.3519,2.3504,2.3487,2.3488,2.348,2.3476,2.3476,2.3475,2.3476,2.3476,2.3475,2.3475,2.3474,2.3473,2.3473,2.3473,0,2.3685,2.3674,2.3671,2.3648,2.3637,2.3628,2.3606,2.3597,2.3585,2.357,2.3554,2.3535,2.3515,2.351,2.3498,2.3491,2.3488,2.348,2.3471,2.3478,2.3476,2.3476,2.3475,2.3475,2.3474,2.3474,0,0,2.3712,2.3677,2.3677,2.3665,2.364,2.363,2.3619,2.36,2.3591,2.3575,2.3563,2.3543,2.3534,2.3521,2.3507,2.35,2.3501,2.3492,2.3491,2.3493,2.3489,2.3495,2.3495,2.3493,2.3492,2.3492,2.349,0,2.3719,2.3699,2.3681,2.3667,2.3655,2.3635,2.3625,2.3607,2.3592,2.3579,2.3562,2.3547,2.3537,2.3529,2.3521,2.3503,2.35,2.3503,2.348,2.348,2.3486,2.3495,2.3501,2.3501,2.349,2.349,2.349,0,2.3724,2.3708,2.3693,2.3667,2.3661,2.3653,2.3632,2.362,2.3599,2.3588,2.3574,2.3558,2.3544,2.3537,2.3515,2.3517,2.3507,2.3496,2.3495,2.3492,2.3485,2.349,2.35,2.3499,2.3489,2.3489,2.3489,0,2.3743,2.3718,2.3705,2.3696,2.3666,2.366,2.3647,2.3625,2.3614,2.3596,2.3588,2.3568,2.3556,2.354,2.3519,2.3516,2.3498,2.349,2.3488,2.3488,2.3485,2.3485,2.3492,2.348,2.348,2.348,2.348,0,2.3752,2.3743,2.3713,2.3705,2.3694,2.3672,2.3661,2.3646,2.3627,2.3614,2.3595,2.3583,2.3556,2.3541,2.3524,2.3507,2.3502,2.3492,2.3487,2.3493,2.3494,2.3486,2.3485,2.3479,2.3479,2.3479,2.348,0,2.3771,2.3751,2.3735,2.3708,2.37,2.3693,2.3669,2.3659,2.3643,2.3627,2.3622,2.3595,2.3575,2.3553,2.3526,2.3514,2.3498,2.3492,2.3505,2.3503,2.3501,2.3501,2.3501,2.3499,2.349,2.349,2.349,0,2.3778,2.377,2.3742,2.3732,2.372,2.3705,2.3693,2.367,2.3658,2.3632,2.3625,2.3604,2.3586,2.3556,2.3533,2.3511,2.3504,2.3505,2.35,2.3506,2.3502,2.3502,2.35,2.3507,2.3507,2.3507,2.3507,0,2.379,2.378,2.3765,2.3745,2.3731,2.3715,2.3697,2.369,2.3663,2.365,2.363,2.3616,2.3588,2.3566,2.3542,2.3526,2.3511,2.3509,2.3507,2.3512,2.352,2.3514,2.3508,2.3509,2.3509,2.3509,2.3509,2.3509,2.3802,2.3794,2.3772,2.3755,2.3739,2.3722,2.3712,2.3693,2.3677,2.3652,2.3639,2.3619,2.3595,2.356,2.3545,2.3527,2.3523,2.352,2.3519,2.3519,2.352,2.3523,2.3523,2.3523,2.3523,2.3523,2.3523,0,2.3813,2.3798,2.3782,2.3757,2.3743,2.3731,2.371,2.3699,2.3681,2.3661,2.3643,2.3619,2.3597,2.3572,2.3549,2.3539,2.3531,2.3533,2.3533,2.353,2.3526,2.353,2.354,2.354,2.354,2.354,2.354,2.354,2.3817,2.3802,2.3789,2.3765,2.3749,2.373,2.3718,2.3702,2.3685,2.3659,2.3642,2.3626,2.3602,2.3577,2.3555,2.3548,2.354,2.3544,2.3534,2.3532,2.353,2.3529,2.3532,2.3542,2.3542,2.3539,2.3539,2.3539]}]]